DW2182 Weather Reports


time (UTC)temp
F
wind
direction
speed
knots
gust
knots
rain 1hr
in
rain 24hr
in
rain mn
in
humidity
%
barometer
mb
20260502170516 64 135 3.5 7.0 0.00 0.00 0.00 30 1017.6
20260502163516 63 113 5.2 10.4 0.00 0.00 0.00 32 1018.1
20260502162516 62 113 5.2 11.3 0.00 0.00 0.00 33 1018.2
20260502161516 61 135 5.2 10.4 0.00 0.00 0.00 34 1018.3
20260502160516 61 113 6.1 12.2 0.00 0.00 0.00 34 1018.3
20260502151515 56 113 4.3 8.7 0.00 0.00 0.00 43 1018.8
20260502150515 55 113 6.1 9.6 0.00 0.00 0.00 42 1018.7
20260502130517 43 113 2.6 3.5 0.00 0.00 0.00 66 1019.4
20260502123518 40 113 1.7 3.5 0.00 0.00 0.00 70 1019.3
20260502122517 40 113 1.7 2.6 0.00 0.00 0.00 71 1019.2
20260502121517 39 113 1.7 2.6 0.00 0.00 0.00 73 1019.2
20260502120517 38 113 1.7 2.6 0.00 0.00 0.00 75 1019.2
20260502115517 37 113 1.7 2.6 0.00 0.00 0.00 76 1019.2
20260502114557 36 113 1.7 2.6 0.00 0.00 0.00 77 1019.1
20260502113518 36 113 1.7 2.6 0.00 0.01 0.00 77 1019.1
20260502112518 36 135 1.7 3.5 0.00 0.01 0.00 77 1018.9
20260502111515 35 0.0 0.0 0.00 0.01 0.00 78 1018.9
20260502110537 35 0.0 0.0 0.00 0.01 0.00 78 1019.0
20260502105517 35 0.0 0.0 0.00 0.01 0.00 79 1019.1
20260502104517 35 0.0 0.0 0.00 0.01 0.00 79 1019.1
20260502103518 35 0.0 0.0 0.00 0.01 0.00 79 1019.2
20260502102517 35 0.0 0.0 0.00 0.01 0.00 79 1019.2
20260502101517 35 0.0 0.0 0.00 0.01 0.00 78 1019.2
20260502100517 35 0.0 0.0 0.00 0.01 0.00 77 1019.0
20260502091518 37 0.0 0.0 0.00 0.01 0.00 76 1019.1
20260502090518 37 0.0 0.0 0.00 0.01 0.00 75 1019.0
20260502071517 36 0.0 0.0 0.00 0.01 0.00 79 1019.2
20260502070517 36 158 0.9 1.7 0.00 0.01 0.00 78 1019.3
20260502065517 36 0.0 0.0 0.00 0.01 0.00 77 1019.2
20260502064517 37 0.0 1.7 0.00 0.01 0.00 77 1019.3
20260502063517 37 0.0 0.9 0.00 0.01 0.00 76 1019.4
20260502062517 37 0.0 0.0 0.00 0.01 0.00 75 1019.5
20260502061517 37 0.0 0.0 0.00 0.01 0.00 75 1019.4
20260502060537 37 0.0 0.0 0.00 0.01 0.00 74 1019.4
20260502055517 38 0.0 0.0 0.00 0.01 0.00 72 1019.4
20260502054517 38 0.0 0.0 0.00 0.01 0.00 72 1019.3
20260502053517 38 0.0 0.0 0.00 0.01 0.00 71 1019.4
20260502052517 39 0.0 0.0 0.00 0.01 0.00 71 1019.3
20260502051517 39 0.0 0.0 0.00 0.01 0.00 71 1019.4
20260502050517 39 0.0 0.9 0.00 0.01 0.00 71 1019.4
20260502045517 39 0.0 0.0 0.00 0.01 0.01 69 1019.3
20260502044517 40 0.0 0.0 0.00 0.01 0.01 68 1019.2
20260502043517 40 0.0 0.0 0.00 0.01 0.01 67 1019.2
20260502042518 40 0.0 0.9 0.00 0.01 0.01 66 1019.2
20260502041517 41 0.0 0.0 0.00 0.01 0.01 65 1019.2
20260502040517 41 0.0 0.0 0.00 0.01 0.01 64 1019.2
20260502035517 42 0.0 0.0 0.00 0.01 0.01 62 1019.3
20260502034537 42 0.0 0.0 0.00 0.01 0.01 62 1019.1
20260502033537 43 0.0 0.0 0.00 0.01 0.01 62 1019.2
20260502032517 43 0.0 0.0 0.00 0.01 0.01 59 1019.3
20260502031517 44 0.0 0.0 0.00 0.01 0.01 58 1019.3
20260502030537 44 0.0 0.9 0.00 0.01 0.01 56 1019.3
20260502025517 45 0.0 0.9 0.00 0.01 0.01 55 1019.2
20260502024517 45 0.0 0.0 0.00 0.01 0.01 55 1019.1
20260502023517 46 0.0 0.0 0.00 0.01 0.01 53 1019.1
20260502022537 47 0.0 0.0 0.00 0.01 0.01 50 1018.9
20260502021517 48 0.0 0.9 0.00 0.01 0.01 47 1018.8
20260502020537 48 0.0 0.0 0.00 0.02 0.01 46 1018.7
20260502015517 49 0.0 0.9 0.00 0.04 0.01 45 1018.7
20260502014517 49 0.0 1.7 0.00 0.04 0.01 43 1018.5
20260502013517 50 158 0.9 2.6 0.00 0.04 0.01 42 1018.4
20260502012537 50 158 0.9 3.5 0.00 0.04 0.01 42 1018.4
20260502011517 51 158 0.9 2.6 0.00 0.04 0.01 42 1018.4
20260502010517 51 158 1.7 4.3 0.00 0.04 0.01 41 1018.3
20260502005517 51 0 1.7 6.1 0.00 0.04 0.01 41 1018.3
20260502004517 52 158 2.6 5.2 0.00 0.04 0.01 40 1018.4
20260502003517 52 158 3.5 7.0 0.00 0.04 0.01 39 1018.2
20260502002517 52 158 4.3 8.7 0.00 0.04 0.01 37 1018.2
20260502001517 52 158 5.2 9.6 0.00 0.04 0.01 38 1018.1
20260502000516 53 158 6.1 11.3 0.00 0.04 0.01 38 1018.1
20260501235517 52 158 3.5 7.0 0.00 0.04 0.01 37 1018.0
20260501234517 53 158 4.3 7.8 0.00 0.04 0.01 36 1018.0
20260501233516 53 135 3.5 7.8 0.00 0.04 0.01 36 1018.0
20260501232516 53 158 4.3 8.7 0.00 0.04 0.01 36 1018.0
20260501231516 54 158 4.3 9.6 0.00 0.04 0.01 36 1018.1
20260501230516 54 158 4.3 9.6 0.00 0.04 0.01 36 1018.0
20260501225517 55 135 4.3 7.8 0.00 0.04 0.01 37 1018.0
20260501224516 55 158 5.2 7.8 0.00 0.04 0.01 36 1018.0
20260501223516 55 135 4.3 9.6 0.00 0.04 0.01 35 1017.9
20260501222516 55 0 4.3 10.4 0.00 0.04 0.01 35 1018.0
20260501221516 55 158 3.5 7.0 0.00 0.04 0.01 35 1018.1
20260501220517 55 45 2.6 6.1 0.00 0.04 0.01 38 1018.1
20260501215536 54 0 3.5 8.7 0.00 0.04 0.01 38 1018.0
20260501214517 55 135 2.6 6.1 0.00 0.04 0.01 38 1018.1
20260501213517 54 135 6.1 9.6 0.00 0.04 0.01 38 1018.1
20260501212516 55 158 4.3 10.4 0.00 0.04 0.01 37 1018.1
20260501211516 55 23 1.7 4.3 0.00 0.04 0.01 37 1018.1
20260501210516 55 158 5.2 8.7 0.00 0.04 0.01 38 1018.2
20260501205517 56 135 4.3 12.2 0.00 0.04 0.01 36 1018.3
20260501204517 56 0 3.5 8.7 0.00 0.04 0.01 34 1018.4
20260501203517 57 23 2.6 7.0 0.00 0.04 0.01 36 1018.5
20260501202516 56 135 3.5 7.8 0.00 0.04 0.01 38 1018.4
20260501201516 56 0 4.3 8.7 0.00 0.04 0.01 36 1018.5
20260501200516 57 23 5.2 10.4 0.00 0.04 0.01 38 1018.6
20260501195516 57 0 1.7 7.8 0.00 0.04 0.01 36 1018.5
20260501194516 57 158 5.2 8.7 0.00 0.04 0.01 38 1018.6
20260501193516 55 23 1.7 7.0 0.00 0.04 0.01 42 1018.5
20260501192516 54 0 6.1 16.5 0.00 0.04 0.01 40 1018.5
20260501191516 54 23 3.5 7.8 0.00 0.04 0.01 40 1018.6
20260501190536 56 0 3.5 7.8 0.00 0.04 0.01 42 1018.5
20260501185517 54 158 3.5 12.2 0.00 0.04 0.01 41 1018.6
20260501184517 53 23 3.5 7.0 0.00 0.04 0.01 43 1018.4
20260501183517 54 45 2.6 6.1 0.00 0.04 0.01 40 1018.4
20260501182517 54 135 3.5 8.7 0.00 0.04 0.01 42 1018.4
20260501181517 54 23 4.3 9.6 0.00 0.04 0.01 41 1018.5
20260501180517 53 45 2.6 10.4 0.00 0.04 0.01 43 1018.4
20260501175516 55 45 3.5 8.7 0.00 0.04 0.01 42 1018.4